Location: Pella
(41.4080°N, 92.9160°W)
Time: 07:18:13
(UTC-05:00)

ASTRO E2 - Visible Passes

Search period start: 21 April 2014 00:00
Search period end: 01 May 2014 00:00
Orbit: 537 x 544 km, 31.4° (Epoch: 20 April)

Date Brightness Start Highest point End Pass type
(mag) Time Alt. Az. Time Alt. Az. Time Alt. Az.
21 Apr 4.4 04:46:23 20° S 04:46:35 20° S 04:49:37 10° SE visible
22 Apr 4.4 04:37:15 20° S 04:37:15 20° S 04:39:58 10° SE visible
23 Apr 4.6 04:28:10 19° SSE 04:28:10 19° SSE 04:30:16 10° SE visible
24 Apr 4.8 04:19:08 16° SSE 04:19:08 16° SSE 04:20:29 10° SE visible
25 Apr 5.2 04:10:12 12° SE 04:10:12 12° SE 04:10:39 10° SE visible
25 Apr 5.0 05:47:32 10° SSW 05:48:00 10° SSW 05:48:28 10° SSW visible
